TimeADT,TemperatureF,Dew PointF,Humidity,Sea Level PressureIn,VisibilityMPH,Wind Direction,Wind SpeedMPH,Gust SpeedMPH,PrecipitationIn,Events,Conditions,WindDirDegrees,DateUTC
12:00 AM,60.8,59.0,94,30.03,10.0,ESE,15.0,-,N/A,,Overcast,120,2013-09-03 03:00:00
1:00 AM,60.8,59.0,94,30.02,10.0,ESE,15.0,20.7,N/A,,Overcast,110,2013-09-03 04:00:00
2:00 AM,60.8,60.8,100,30.01,10.0,ESE,13.8,-,N/A,,Overcast,120,2013-09-03 05:00:00
2:16 AM,60.8,60.8,100,30.00,8.0,ESE,13.8,-,N/A,,Light Drizzle,120,2013-09-03 05:16:00
3:00 AM,62.6,60.8,94,29.99,8.0,ESE,13.8,-,N/A,,Light Drizzle,120,2013-09-03 06:00:00
4:00 AM,62.6,60.8,94,29.97,10.0,ESE,13.8,19.6,N/A,,Overcast,120,2013-09-03 07:00:00
4:38 AM,62.6,60.8,94,29.96,6.0,SE,15.0,-,N/A,Rain,Light Rain,130,2013-09-03 07:38:00
5:00 AM,62.6,62.6,100,29.95,4.0,ESE,12.7,20.7,N/A,Rain,Rain,120,2013-09-03 08:00:00
6:00 AM,62.6,62.6,100,29.93,3.0,ESE,13.8,19.6,N/A,Rain,Rain,120,2013-09-03 09:00:00
6:31 AM,62.6,62.6,100,29.93,12.0,ESE,17.3,-,N/A,,Overcast,120,2013-09-03 09:31:00
6:44 AM,62.6,62.6,100,29.93,10.0,SE,16.1,-,N/A,Rain,Light Rain,130,2013-09-03 09:44:00
7:00 AM,64.4,62.6,94,29.92,8.0,SE,16.1,-,N/A,Rain,Light Rain,130,2013-09-03 10:00:00
8:00 AM,64.4,64.4,100,29.92,10.0,SE,17.3,25.3,N/A,Rain,Light Rain,130,2013-09-03 11:00:00
9:00 AM,65,64,97,29.91,10,SE,16.1,,,Rain,Light Rain,130,2013-09-03 12:00:00
9:00 AM,66.2,64.4,94,29.91,10.0,SE,16.1,24.2,N/A,Rain,Light Rain,130,2013-09-03 12:00:00
10:00 AM,66.2,66.2,100,29.89,8.0,SE,16.1,27.6,N/A,Rain,Light Rain,130,2013-09-03 13:00:00
10:38 AM,66.2,66.2,100,29.88,5.0,SE,18.4,28.8,N/A,Rain,Rain,140,2013-09-03 13:38:00
11:00 AM,68.0,66.2,94,29.88,3.0,SE,19.6,25.3,N/A,Rain,Rain,140,2013-09-03 14:00:00
11:24 AM,68.0,66.2,94,29.86,2.0,SE,19.6,29.9,N/A,Rain,Heavy Rain,130,2013-09-03 14:24:00
12:00 PM,68.0,66.2,94,29.84,3.0,SE,17.3,27.6,N/A,Rain,Rain,130,2013-09-03 15:00:00
1:00 PM,68.0,66.2,94,29.81,3.0,SE,18.4,28.8,N/A,Rain,Heavy Rain,140,2013-09-03 16:00:00
1:19 PM,68.0,66.2,94,29.80,3.0,SSE,24.2,36.8,N/A,Rain,Rain,150,2013-09-03 16:19:00
2:00 PM,68.0,66.2,94,29.79,3.0,SSE,23.0,33.4,N/A,Rain,Light Rain,160,2013-09-03 17:00:00
3:00 PM,68,67,96,29.80,6,SSE,21.9,,,Rain,Light Rain,160,2013-09-03 18:00:00
3:00 PM,68.0,66.2,94,29.80,6.0,SSE,21.9,29.9,N/A,Rain,Light Rain,160,2013-09-03 18:00:00
3:11 PM,68.0,68.0,100,29.80,10.0,SSE,20.7,-,N/A,,Overcast,160,2013-09-03 18:11:00
4:00 PM,68.0,68.0,100,29.79,8.0,SSE,16.1,23.0,N/A,,Overcast,150,2013-09-03 19:00:00
4:44 PM,69.8,68.0,94,29.78,15.0,SSE,13.8,-,N/A,,Overcast,150,2013-09-03 19:44:00
5:00 PM,69.8,68.0,94,29.78,15.0,SSE,13.8,-,N/A,,Overcast,150,2013-09-03 20:00:00
5:05 PM,69.8,68.0,94,29.78,15.0,SSE,13.8,-,N/A,Rain,Light Rain Showers,150,2013-09-03 20:05:00
6:00 PM,68.0,68.0,100,29.77,15.0,SSE,13.8,-,N/A,Rain,Light Rain Showers,150,2013-09-03 21:00:00
6:54 PM,69.8,68.0,94,29.76,15.0,SSE,12.7,-,N/A,,Mostly Cloudy,160,2013-09-03 21:54:00
7:00 PM,69.8,68.0,94,29.76,15.0,SSE,12.7,-,N/A,,Mostly Cloudy,160,2013-09-03 22:00:00
7:41 PM,68.0,68.0,100,29.76,15.0,SSE,9.2,-,N/A,,Overcast,150,2013-09-03 22:41:00
8:00 PM,68.0,68.0,100,29.76,15.0,SSE,9.2,-,N/A,,Mostly Cloudy,150,2013-09-03 23:00:00
8:46 PM,68.0,68.0,100,29.77,15.0,SSE,8.1,-,N/A,,Overcast,160,2013-09-03 23:46:00
9:00 PM,69,68,95,29.77,15,SSE,8.1,,,,Partly Cloudy,160,2013-09-04 00:00:00
9:00 PM,68.0,68.0,100,29.77,15.0,SSE,9.2,-,N/A,,Overcast,160,2013-09-04 00:00:00
10:00 PM,68.0,68.0,100,29.76,15.0,South,9.2,-,N/A,,Mostly Cloudy,170,2013-09-04 01:00:00
10:16 PM,68.0,68.0,100,29.77,15.0,South,9.2,-,N/A,,Overcast,170,2013-09-04 01:16:00
11:00 PM,68.0,68.0,100,29.76,15.0,South,9.2,-,N/A,,Overcast,180,2013-09-04 02:00:00
11:27 PM,68.0,68.0,100,29.76,15.0,South,9.2,-,N/A,,Overcast,190,2013-09-04 02:27:00